FW6791 Weather Reports


Display with metric or nautical units.
time (UTC)temp
F
wind
direction
speed
MPH
gust
MPH
rain 1hr
in
rain 24hr
in
rain mn
in
humidity
%
barometer
mb
20260510071435 64 178 6.0 8.0 0.00 0.00 0.00 66 1013.1
20260510070933 64 181 4.0 6.0 0.00 0.00 0.00 66 1013.2
20260510070430 64 189 4.0 4.0 0.00 0.00 0.00 67 1013.1
20260510065926 64 184 4.0 4.0 0.00 0.00 0.00 67 1013.1
20260510065423 65 172 4.0 6.0 0.00 0.00 0.00 64 1013.4
20260510064919 65 179 4.0 6.0 0.00 0.00 0.00 63 1013.1
20260510064417 65 177 5.0 6.0 0.00 0.00 0.00 63 1013.1
20260510063913 64 174 3.0 3.0 0.00 0.00 0.00 65 1013.1
20260510063409 64 179 2.0 3.0 0.00 0.00 0.00 65 1013.5
20260510062907 64 161 5.0 6.0 0.00 0.00 0.00 66 1013.6
20260510062402 63 172 2.0 3.0 0.00 0.00 0.00 69 1013.7
20260510061858 62 172 2.0 3.0 0.00 0.00 0.00 69 1013.8
20260510061355 60 161 0.0 0.0 0.00 0.00 0.00 79 1013.8
20260510060850 60 157 0.0 0.0 0.00 0.00 0.00 80 1013.8
20260510060347 59 157 1.0 1.0 0.00 0.00 0.00 81 1013.8
20260510055843 58 157 0.0 0.0 0.00 0.00 0.00 86 1013.7
20260510055343 58 156 0.0 0.0 0.00 0.00 0.00 86 1013.7
20260510054837 58 155 0.0 0.0 0.00 0.00 0.00 85 1013.6
20260510054333 58 156 0.0 0.0 0.00 0.00 0.00 85 1013.8
20260510053828 57 156 0.0 0.0 0.00 0.00 0.00 86 1013.8
20260510053323 57 155 0.0 0.0 0.00 0.00 0.00 85 1014.0
20260510052820 57 159 0.0 0.0 0.00 0.00 0.00 86 1014.1
20260510052316 57 159 0.0 0.0 0.00 0.00 0.00 86 1014.0
20260510051812 57 159 0.0 0.0 0.00 0.00 0.00 85 1013.7
20260510051309 58 160 0.0 0.0 0.00 0.00 0.00 84 1013.6
20260510050806 58 158 0.0 0.0 0.00 0.00 0.00 83 1013.7
20260510050303 59 155 0.0 1.0 0.00 0.00 0.00 83 1013.6
20260510045800 58 152 0.0 1.0 0.00 0.00 0.00 82 1013.6
20260510045256 59 157 0.0 0.0 0.00 0.00 0.00 81 1013.6
20260510044754 60 157 0.0 0.0 0.00 0.00 0.00 76 1013.5
20260510044250 61 159 0.0 0.0 0.00 0.00 0.00 74 1013.6
20260510043746 60 148 1.0 1.0 0.00 0.00 0.00 75 1013.7
20260510043237 58 152 0.0 0.0 0.00 0.00 0.00 78 1013.7
20260510042735 58 156 0.0 1.0 0.00 0.00 0.00 82 1013.7
20260510042230 58 152 1.0 1.0 0.00 0.00 0.00 82 1013.7
20260510041727 59 152 0.0 0.0 0.00 0.00 0.00 82 1013.4
20260510041224 59 158 0.0 0.0 0.00 0.00 0.00 81 1013.4
20260510040721 59 158 0.0 0.0 0.00 0.00 0.00 79 1013.4
20260510040218 60 158 0.0 0.0 0.00 0.00 0.00 77 1013.2
20260510035713 60 155 0.0 0.0 0.00 0.00 0.00 75 1013.6
20260510035210 60 157 0.0 0.0 0.00 0.00 0.00 81 1013.6
20260510034705 61 152 0.0 1.0 0.00 0.00 0.00 81 1013.4
20260510034203 61 156 0.0 0.0 0.00 0.00 0.00 78 1013.6
20260510033659 60 155 0.0 0.0 0.00 0.00 0.00 78 1013.2
20260510033157 61 158 0.0 1.0 0.00 0.00 0.00 80 1013.0
20260510032653 62 146 1.0 1.0 0.00 0.00 0.00 79 1012.8
20260510032149 63 139 1.0 1.0 0.00 0.00 0.00 73 1012.8
20260510031643 63 158 1.0 1.0 0.00 0.00 0.00 74 1012.5
20260510031140 61 154 1.0 1.0 0.00 0.00 0.00 79 1012.5
20260510030635 61 157 0.0 0.0 0.00 0.00 0.00 84 1012.6
20260510030133 61 156 0.0 0.0 0.00 0.00 0.00 82 1012.4
20260510025630 61 152 0.0 0.0 0.00 0.00 0.00 80 1012.4
20260510025127 61 154 0.0 0.0 0.00 0.00 0.00 77 1012.4
20260510024624 61 155 0.0 0.0 0.00 0.00 0.00 80 1012.4
20260510024120 62 156 0.0 0.0 0.00 0.00 0.00 79 1012.4
20260510023616 62 157 0.0 0.0 0.00 0.00 0.00 75 1012.1
20260510023114 63 153 0.0 0.0 0.00 0.00 0.00 73 1012.1
20260510022614 63 156 0.0 0.0 0.00 0.00 0.00 71 1012.0
20260510022108 63 145 1.0 1.0 0.00 0.00 0.00 74 1011.8
20260510021604 64 156 0.0 0.0 0.00 0.00 0.00 71 1011.6
20260510021102 66 157 0.0 0.0 0.00 0.00 0.00 65 1011.5
20260510020556 66 156 0.0 1.0 0.00 0.00 0.00 64 1011.5
20260510020052 66 151 1.0 1.0 0.00 0.00 0.00 66 1011.3
20260510015548 66 150 1.0 1.0 0.00 0.00 0.00 66 1011.2
20260510015044 67 157 0.0 0.0 0.00 0.00 0.00 64 1011.1
20260510014540 67 159 0.0 0.0 0.00 0.00 0.00 63 1011.0
20260510014037 67 157 0.0 0.0 0.00 0.00 0.00 67 1011.0
20260510013531 68 154 0.0 0.0 0.00 0.00 0.00 67 1010.9
20260510013027 69 155 0.0 0.0 0.00 0.00 0.00 60 1010.7
20260510012522 68 157 0.0 0.0 0.00 0.00 0.00 60 1010.7
20260510012019 69 157 0.0 0.0 0.00 0.00 0.00 61 1010.7
20260510011519 69 157 0.0 0.0 0.00 0.00 0.00 60 1010.4
20260510011015 70 157 0.0 0.0 0.00 0.00 0.00 60 1010.4
20260510010512 71 158 0.0 0.0 0.00 0.00 0.00 60 1010.4
20260510010009 72 158 0.0 0.0 0.00 0.00 0.00 58 1010.3
20260510005504 73 158 0.0 0.0 0.00 0.00 0.00 55 1010.3
20260510005002 73 158 0.0 0.0 0.00 0.00 0.00 61 1010.1
20260510004459 74 158 0.0 0.0 0.00 0.00 0.00 54 1010.1
20260510003957 74 161 0.0 1.0 0.00 0.00 0.00 49 1010.3
20260510003454 75 158 0.0 0.0 0.00 0.00 0.00 55 1010.1
20260510002949 75 161 0.0 1.0 0.00 0.00 0.00 48 1010.3
20260510002445 75 160 0.0 0.0 0.00 0.00 0.00 49 1010.2
20260510001942 75 160 1.0 1.0 0.00 0.00 0.00 51 1010.2
20260510001439 76 160 1.0 1.0 0.00 0.00 0.00 47 1010.3
20260510000937 78 159 1.0 1.0 0.00 0.00 0.00 47 1010.3
20260510000433 78 161 0.0 0.0 0.00 0.00 0.00 51 1010.3
20260509235929 78 160 0.0 0.0 0.00 0.00 0.00 49 1010.4
20260509235426 79 157 0.0 0.0 0.00 0.00 0.00 47 1010.3
20260509234922 79 150 0.0 1.0 0.00 0.00 0.00 45 1010.3
20260509234419 80 147 0.0 1.0 0.00 0.00 0.00 45 1010.2
20260509233917 80 152 1.0 1.0 0.00 0.00 0.00 42 1010.3
20260509233414 80 159 0.0 0.0 0.00 0.00 0.00 43 1010.2
20260509232910 82 165 1.0 1.0 0.00 0.00 0.00 39 1010.4
20260509232403 81 160 0.0 0.0 0.00 0.00 0.00 40 1010.2
20260509231858 79 159 0.0 0.0 0.00 0.00 0.00 42 1010.2
20260509231355 80 159 0.0 0.0 0.00 0.00 0.00 46 1010.3
20260509230853 80 164 0.0 0.0 0.00 0.00 0.00 41 1010.3
20260509230350 80 160 0.0 0.0 0.00 0.00 0.00 41 1010.3
20260509225845 80 163 1.0 1.0 0.00 0.00 0.00 40 1010.4
20260509225342 81 176 1.0 2.0 0.00 0.00 0.00 41 1010.7
20260509224838 79 161 0.0 1.0 0.00 0.00 0.00 45 1010.5
20260509224334 78 188 2.0 3.0 0.00 0.00 0.00 44 1010.4
20260509223831 78 161 1.0 1.0 0.00 0.00 0.00 41 1010.3
20260509223327 79 147 0.0 1.0 0.00 0.00 0.00 38 1010.4
20260509222825 81 160 0.0 0.0 0.00 0.00 0.00 42 1010.5
20260509222320 80 160 0.0 0.0 0.00 0.00 0.00 37 1010.5
20260509221815 80 138 2.0 2.0 0.00 0.00 0.00 37 1010.4
20260509221313 80 154 1.0 1.0 0.00 0.00 0.00 38 1010.5
20260509220808 81 204 2.0 2.0 0.00 0.00 0.00 39 1010.2
20260509220305 80 167 0.0 1.0 0.00 0.00 0.00 37 1010.5
20260509215800 82 118 3.0 3.0 0.00 0.00 0.00 38 1010.5
20260509215257 80 163 0.0 0.0 0.00 0.00 0.00 36 1010.4
20260509214754 80 223 3.0 3.0 0.00 0.00 0.00 39 1010.7
20260509214251 80 139 2.0 2.0 0.00 0.00 0.00 37 1010.5
20260509213748 80 181 2.0 3.0 0.00 0.00 0.00 42 1010.4
20260509213244 81 193 2.0 2.0 0.00 0.00 0.00 40 1010.5
20260509212741 80 165 0.0 0.0 0.00 0.00 0.00 41 1010.7
20260509212239 81 165 2.0 2.0 0.00 0.00 0.00 40 1010.9
20260509211734 81 179 1.0 1.0 0.00 0.00 0.00 39 1010.7
20260509211231 80 164 0.0 1.0 0.00 0.00 0.00 43 1010.9
20260509210727 79 173 4.0 4.0 0.00 0.00 0.00 42 1010.9
20260509210225 80 169 1.0 2.0 0.00 0.00 0.00 40 1010.9
20260509205724 80 161 0.0 0.0 0.00 0.00 0.00 42 1011.0
20260509205224 79 272 6.0 7.0 0.00 0.00 0.00 42 1010.9
20260509204721 80 201 2.0 3.0 0.00 0.00 0.00 41 1011.0
20260509204217 79 194 4.0 4.0 0.00 0.00 0.00 45 1011.1
20260509203713 80 109 3.0 3.0 0.00 0.00 0.00 41 1011.2
20260509203212 80 194 2.0 3.0 0.00 0.00 0.00 42 1011.1
20260509202707 81 167 0.0 0.0 0.00 0.00 0.00 42 1011.1
20260509202202 81 160 0.0 0.0 0.00 0.00 0.00 43 1011.2
20260509201657 80 164 0.0 1.0 0.00 0.00 0.00 41 1011.2
20260509201154 79 157 5.0 6.0 0.00 0.00 0.00 38 1011.2
20260509200651 79 162 3.0 3.0 0.00 0.00 0.00 38 1011.1
20260509200146 80 156 2.0 3.0 0.00 0.00 0.00 39 1011.1
20260509195642 79 170 4.0 4.0 0.00 0.00 0.00 40 1011.4
20260509195137 80 171 2.0 3.0 0.00 0.00 0.00 38 1011.3
20260509194637 81 158 1.0 2.0 0.00 0.00 0.00 39 1011.4
20260509194134 80 160 0.0 0.0 0.00 0.00 0.00 38 1011.4
20260509193630 79 224 3.0 3.0 0.00 0.00 0.00 39 1011.5
20260509193125 80 177 2.0 3.0 0.00 0.00 0.00 37 1011.4
20260509192623 80 177 2.0 2.0 0.00 0.00 0.00 38 1011.5
20260509192118 79 163 0.0 0.0 0.00 0.00 0.00 38 1011.6
20260509191612 79 170 2.0 3.0 0.00 0.00 0.00 41 1011.7
20260509191109 80 183 1.0 2.0 0.00 0.00 0.00 42 1011.7
20260509190606 79 155 0.0 0.0 0.00 0.00 0.00 42 1011.7
20260509190103 80 183 2.0 3.0 0.00 0.00 0.00 41 1011.7
20260509185601 80 172 2.0 2.0 0.00 0.00 0.00 40 1011.6
20260509185056 79 160 0.0 1.0 0.00 0.00 0.00 38 1011.6
20260509184555 78 181 1.0 2.0 0.00 0.00 0.00 40 1011.8
20260509184051 78 229 3.0 3.0 0.00 0.00 0.00 45 1011.7
20260509183547 79 173 2.0 2.0 0.00 0.00 0.00 40 1011.8
20260509183043 78 172 1.0 2.0 0.00 0.00 0.00 43 1011.9
20260509182539 78 278 3.0 6.0 0.00 0.00 0.00 39 1011.9
20260509182031 78 122 2.0 2.0 0.00 0.00 0.00 41 1011.8
20260509181529 78 163 1.0 1.0 0.00 0.00 0.00 43 1012.0
20260509181026 78 112 2.0 2.0 0.00 0.00 0.00 40 1011.8
20260509180521 78 194 2.0 3.0 0.00 0.00 0.00 43 1011.7
20260509180019 78 175 1.0 2.0 0.00 0.00 0.00 48 1011.8
20260509175514 78 192 2.0 3.0 0.00 0.00 0.00 50 1011.9
20260509175011 77 173 1.0 2.0 0.00 0.00 0.00 51 1011.8
20260509174508 77 188 3.0 4.0 0.00 0.00 0.00 53 1011.9
20260509174003 77 188 2.0 2.0 0.00 0.00 0.00 49 1012.1
20260509173457 77 200 4.0 4.0 0.00 0.00 0.00 47 1012.0
20260509172954 77 216 3.0 3.0 0.00 0.00 0.00 49 1012.0
20260509172451 76 264 3.0 4.0 0.00 0.00 0.00 48 1012.0
20260509171946 77 193 2.0 3.0 0.00 0.00 0.00 50 1012.1
20260509171443 77 287 4.0 7.0 0.00 0.00 0.00 47 1012.1
20260509170939 78 165 1.0 1.0 0.00 0.00 0.00 54 1012.1
20260509170435 77 161 0.0 0.0 0.00 0.00 0.00 53 1012.1
20260509165930 76 239 5.0 6.0 0.00 0.00 0.00 53 1012.2
20260509165425 77 188 4.0 4.0 0.00 0.00 0.00 54 1012.2
20260509164921 76 163 2.0 2.0 0.00 0.00 0.00 54 1012.0
20260509164417 75 160 0.0 0.0 0.00 0.00 0.00 52 1012.0
20260509163913 75 162 0.0 1.0 0.00 0.00 0.00 58 1011.9
20260509163410 74 178 2.0 2.0 0.00 0.00 0.00 60 1012.2
20260509162909 75 173 1.0 2.0 0.00 0.00 0.00 60 1012.2
20260509162408 74 173 1.0 2.0 0.00 0.00 0.00 60 1012.1
20260509161904 73 173 2.0 2.0 0.00 0.00 0.00 65 1012.0
20260509161400 75 167 1.0 1.0 0.00 0.00 0.00 65 1012.2
20260509160856 73 160 1.0 1.0 0.00 0.00 0.00 66 1012.1
20260509160352 73 181 2.0 2.0 0.00 0.00 0.00 68 1012.0
20260509155847 73 165 1.0 1.0 0.00 0.00 0.00 69 1012.2
20260509155344 71 176 2.0 2.0 0.00 0.00 0.00 68 1012.1
20260509154840 71 177 3.0 4.0 0.00 0.00 0.00 69 1011.9
20260509154337 73 164 1.0 1.0 0.00 0.00 0.00 69 1012.0
20260509153834 71 182 2.0 2.0 0.00 0.00 0.00 68 1012.0
20260509153331 70 181 2.0 3.0 0.00 0.00 0.00 71 1012.0
20260509152827 70 164 2.0 2.0 0.00 0.00 0.00 71 1011.9
20260509152323 70 160 1.0 1.0 0.00 0.00 0.00 71 1011.9
20260509151821 70 177 2.0 4.0 0.00 0.00 0.00 73 1012.0
20260509151316 70 170 1.0 1.0 0.00 0.00 0.00 72 1012.0
20260509150815 69 148 3.0 3.0 0.00 0.00 0.00 74 1012.0
20260509150307 69 157 1.0 1.0 0.00 0.00 0.00 76 1011.9
20260509145804 68 162 1.0 1.0 0.00 0.00 0.00 77 1012.1
20260509145306 68 192 2.0 2.0 0.00 0.00 0.00 79 1012.0
20260509144800 67 160 1.0 1.0 0.00 0.00 0.00 77 1012.1
20260509144258 68 167 2.0 2.0 0.00 0.00 0.00 77 1012.1
20260509143754 67 163 1.0 1.0 0.00 0.00 0.00 80 1012.1
20260509143252 66 172 2.0 2.0 0.00 0.00 0.00 80 1012.0
20260509142747 66 163 2.0 3.0 0.00 0.00 0.00 82 1012.0
20260509142244 65 169 2.0 3.0 0.00 0.00 0.00 82 1012.0
20260509141740 64 172 3.0 3.0 0.00 0.00 0.00 83 1011.9
20260509141237 63 194 4.0 4.0 0.00 0.00 0.00 85 1011.8
20260509140734 63 160 2.0 2.0 0.00 0.00 0.00 83 1012.0
20260509140231 63 179 3.0 4.0 0.00 0.00 0.00 86 1011.8
20260509135728 62 180 4.0 4.0 0.00 0.00 0.00 86 1011.8
20260509135226 62 172 2.0 3.0 0.00 0.00 0.00 87 1011.7
20260509134723 61 179 5.0 6.0 0.00 0.00 0.00 86 1011.7
20260509134220 61 191 4.0 4.0 0.00 0.00 0.00 87 1011.6
20260509133717 61 162 1.0 2.0 0.00 0.00 0.00 88 1011.5
20260509133214 60 185 4.0 4.0 0.00 0.00 0.00 88 1011.4
20260509132713 61 187 4.0 4.0 0.00 0.00 0.00 89 1011.6
20260509132211 60 175 4.0 4.0 0.00 0.00 0.00 88 1011.3
20260509131707 60 184 2.0 2.0 0.00 0.00 0.00 88 1011.5
20260509131204 59 183 4.0 4.0 0.00 0.00 0.00 90 1011.5
20260509130659 59 185 6.0 7.0 0.00 0.00 0.00 90 1011.6
20260509130156 59 172 2.0 3.0 0.00 0.00 0.00 90 1011.4
20260509125652 60 184 3.0 3.0 0.00 0.00 0.00 89 1011.3
20260509125149 59 166 1.0 1.0 0.00 0.00 0.00 90 1011.4
20260509124646 59 179 2.0 2.0 0.00 0.00 0.00 91 1011.3
20260509124143 62 173 2.0 2.0 0.00 0.00 0.00 84 1011.4
20260509123641 59 155 0.0 0.0 0.00 0.00 0.00 87 1011.2
20260509123137 59 154 0.0 0.0 0.00 0.00 0.00 87 1011.2
20260509122633 57 153 0.0 0.0 0.00 0.00 0.00 89 1011.1
20260509122130 56 153 0.0 0.0 0.00 0.00 0.00 89 1011.1
20260509121626 55 150 0.0 0.0 0.00 0.00 0.00 90 1011.0
20260509121125 53 152 0.0 0.0 0.00 0.00 0.00 92 1011.1
20260509120622 52 148 1.0 1.0 0.00 0.00 0.00 93 1011.1
20260509120121 52 146 1.0 1.0 0.00 0.00 0.00 95 1010.9
20260509115617 51 151 0.0 0.0 0.00 0.00 0.00 97 1010.9
20260509115115 51 143 1.0 1.0 0.00 0.00 0.00 98 1011.0
20260509114613 51 140 1.0 2.0 0.00 0.00 0.00 98 1010.9
20260509114112 51 146 1.0 1.0 0.00 0.00 0.00 98 1010.9
20260509113609 50 156 0.0 0.0 0.00 0.00 0.00 99 1010.9
20260509113107 50 152 1.0 1.0 0.00 0.00 0.00 99 1010.9
20260509112603 49 152 0.0 1.0 0.00 0.00 0.00 99 1010.7
20260509112100 50 154 0.0 0.0 0.00 0.00 0.00 99 1010.7
20260509111557 50 155 0.0 0.0 0.00 0.00 0.00 99 1010.8
20260509111054 50 153 0.0 0.0 0.00 0.00 0.00 99 1010.7
20260509110551 50 156 0.0 0.0 0.00 0.00 0.00 99 1010.7
20260509110048 49 155 0.0 0.0 0.00 0.00 0.00 99 1010.5
20260509105547 49 158 0.0 0.0 0.00 0.00 0.00 98 1010.7
20260509105044 49 160 0.0 0.0 0.00 0.00 0.00 98 1010.5
20260509104541 49 163 0.0 0.0 0.00 0.00 0.00 98 1010.5
20260509104037 50 159 0.0 0.0 0.00 0.00 0.00 98 1010.5
20260509103535 50 158 0.0 0.0 0.00 0.00 0.00 98 1010.3
20260509103033 50 156 0.0 0.0 0.00 0.00 0.00 98 1010.1
20260509102530 50 155 0.0 0.0 0.00 0.00 0.00 98 1010.3
20260509102027 51 153 0.0 0.0 0.00 0.00 0.00 98 1010.4
20260509101523 51 158 0.0 0.0 0.00 0.00 0.00 98 1010.3
20260509101020 51 156 0.0 0.0 0.00 0.00 0.00 98 1010.5
20260509100518 51 156 0.0 0.0 0.00 0.00 0.00 98 1010.5
20260509100015 50 154 0.0 0.0 0.00 0.00 0.00 98 1010.4
20260509095511 50 155 0.0 0.0 0.00 0.00 0.00 97 1010.4
20260509095009 51 155 0.0 0.0 0.00 0.00 0.00 97 1010.5
20260509094505 51 154 0.0 0.0 0.00 0.00 0.00 97 1010.7
20260509094002 51 157 0.0 0.0 0.00 0.00 0.00 97 1010.7
20260509093500 51 159 0.0 0.0 0.00 0.00 0.00 97 1010.7
20260509092957 51 157 0.0 0.0 0.00 0.00 0.00 97 1010.8
20260509092455 52 158 0.0 0.0 0.00 0.00 0.00 96 1010.5
20260509091954 52 157 0.0 0.0 0.00 0.00 0.00 96 1010.7
20260509091450 52 157 0.0 0.0 0.00 0.00 0.00 95 1010.8
20260509090947 53 159 0.0 0.0 0.00 0.00 0.00 95 1011.0
20260509090445 53 161 0.0 0.0 0.00 0.00 0.00 94 1010.8
20260509085942 53 159 0.0 0.0 0.00 0.00 0.00 93 1011.0
20260509085439 53 153 0.0 0.0 0.00 0.00 0.00 93 1010.9
20260509084935 54 166 1.0 1.0 0.00 0.00 0.00 93 1011.0
20260509084432 54 169 1.0 1.0 0.00 0.00 0.00 92 1011.1
20260509083930 55 174 2.0 2.0 0.00 0.00 0.00 91 1010.9
20260509083427 54 183 2.0 2.0 0.00 0.00 0.00 91 1010.9
20260509082923 54 173 2.0 2.0 0.00 0.00 0.00 92 1010.9
20260509082421 54 172 2.0 2.0 0.00 0.00 0.00 92 1011.1
20260509081917 54 174 2.0 2.0 0.00 0.00 0.00 92 1010.9
20260509081415 54 170 2.0 3.0 0.00 0.00 0.00 93 1010.9
20260509080912 54 163 1.0 1.0 0.00 0.00 0.00 92 1011.0
20260509080410 54 190 4.0 4.0 0.00 0.00 0.00 92 1010.9
20260509075908 54 187 4.0 4.0 0.00 0.00 0.00 92 1011.0
20260509075405 53 185 2.0 3.0 0.00 0.00 0.00 94 1010.8
20260509074902 52 164 1.0 1.0 0.00 0.00 0.00 96 1010.8
20260509074400 52 159 0.0 0.0 0.00 0.00 0.00 96 1010.7
20260509073856 51 159 0.0 0.0 0.00 0.00 0.00 95 1010.7
20260509073352 52 159 0.0 0.0 0.00 0.00 0.00 94 1010.7
20260509072849 52 158 0.0 0.0 0.00 0.00 0.00 94 1010.8
20260509072345 52 159 0.0 0.0 0.00 0.00 0.00 92 1010.7
20260509071842 53 161 0.0 0.0 0.00 0.00 0.00 92 1010.7